Theta_e
306 301 297 301 305 302 302 300 298 300 301 301 304 304 307 308 308 313 318 320 322 324 327 329 330 331 330 329 331 332 332 333 334 334 333 333 334 335 331 327 319 319 319 318
300 296 301 304 304 302 300 299 298 298 301 299 301 302 305 306 307 309 313 318 321 323 319 318 319 322 325 324 325 327 328 329 331 333 333 335 335 326 318 315 312 312 314 316
296 298 303 301 300 300 300 298 298 298 298 300 300 299 302 307 304 303 307 313 320 322 314 312 311 313 316 316 316 316 316 318 319 325 330 330 326 319 313 310 309 310 312 312
296 301 300 299 297 300 295 302 301 297 296 292 301 292 301 306 302 299 302 308 312 311 310 307 306 307 308 309 311 311 311 311 310 314 314 312 311 304 304 305 308 308 308 307
292 296 296 296 298 302 297 302 300 299 295 293 294 292 299 304 299 297 298 301 303 305 305 304 304 303 304 305 305 305 304 303 304 305 306 305 304 302 302 303 304 304 304 303
294 299 299 299 302 303 301 297 296 295 294 287 293 292 294 297 300 296 297 298 298 299 300 301 302 301 299 299 300 300 299 298 300 300 301 299 298 299 298 298 299 299 299 298
293 295 297 301 297 300 300 295 285 285 284 285 290 292 295 300 301 298 296 296 297 298 297 296 295 294 295 295 295 296 296 294 295 295 295 295 295 295 294 294 294 294 293 293
286 283 294 300 297 294 294 293 288 282 283 286 288 287 295 297 298 298 298 297 297 297 297 296 295 295 295 294 293 293 293 292 293 292 291 292 292 292 291 291 291 291 290 291
287 286 294 296 298 298 294 289 292 285 281 285 289 291 293 295 295 295 295 296 297 297 297 296 296 295 294 293 292 293 292 291 290 290 290 289 289 289 289 289 289 289 289 289
290 285 290 293 297 296 295 296 286 288 281 281 285 287 291 290 292 293 294 295 297 297 296 295 294 293 293 292 291 291 291 289 289 289 288 288 287 288 288 287 287 287 288 288
292 289 287 290 290 288 290 289 288 290 287 283 282 286 289 293 294 293 295 296 296 294 293 293 293 292 291 290 289 289 289 288 288 288 287 287 286 287 287 286 286 286 286 286
292 289 284 286 290 292 291 291 290 288 283 283 283 285 289 290 297 296 296 295 294 293 292 291 290 289 288 288 288 287 287 287 286 286 286 285 285 285 284 284 284 284 284 285
291 287 282 282 287 289 288 290 291 288 287 281 283 287 290 293 297 299 295 294 292 291 290 289 289 288 287 286 286 286 286 285 285 284 284 283 283 283 282 283 283 283 283 283
294 286 284 283 284 289 286 287 289 289 284 285 284 285 287 292 296 295 293 292 290 290 289 288 287 286 286 285 285 284 284 284 284 283 283 282 282 282 282 282 282 282 282 282
291 284 284 285 286 288 289 288 287 288 290 286 287 285 288 291 293 293 293 291 290 288 287 287 286 285 284 284 284 284 283 283 283 282 281 280 281 281 281 281 281 281 281 281
290 284 284 281 285 287 286 287 290 290 289 288 288 286 291 293 293 291 290 290 288 287 287 286 285 284 283 283 283 282 282 281 281 280 279 279 279 279 279 279 279 279 279 279
288 284 282 281 283 285 281 286 287 289 290 291 285 290 290 288 289 290 290 289 288 287 287 285 284 283 283 282 282 281 280 281 280 279 278 278 278 278 278 278 278 277 278 278
285 284 284 280 280 277 285 285 292 290 291 293 291 290 291 291 292 292 292 290 288 288 287 285 284 282 281 281 281 281 280 279 279 278 277 277 276 277 277 276 276 277 277 277
286 286 280 280 280 282 284 283 286 287 288 293 293 291 291 291 290 289 291 292 290 289 287 285 284 282 281 280 281 279 278 278 277 275 275 275 275 275 275 275 275 276 276 276
285 286 285 277 279 277 285 284 287 290 283 290 295 291 288 289 285 289 290 289 288 287 285 283 282 280 279 279 280 278 276 276 274 274 274 274 274 274 274 274 274 275 275 275
281 282 281 279 281 283 285 285 287 282 285 286 290 291 289 289 292 291 288 286 286 284 283 282 280 279 278 278 278 276 275 274 273 273 273 273 273 273 274 273 274 274 274 274
281 280 280 277 278 279 283 284 285 287 286 285 288 290 290 287 286 287 286 283 282 280 280 279 278 276 276 276 276 275 273 272 272 271 271 271 271 272 273 272 273 272 272 273
276 283 283 282 284 284 284 286 288 286 286 286 287 288 287 285 285 285 283 282 280 279 278 278 277 275 274 274 275 273 272 271 270 269 269 270 270 271 271 271 271 272 272 272
278 279 278 278 282 282 283 285 286 286 286 287 288 288 287 286 285 283 282 280 279 277 276 275 274 273 271 271 271 271 270 269 267 268 269 270 269 269 270 271 271 271 271 271
279 279 278 278 281 281 284 284 286 285 285 285 285 285 286 285 283 282 280 278 277 276 274 274 273 272 271 270 269 268 267 267 268 268 268 269 269 268 269 269 269 269 271 271
279 279 279 279 283 284 283 286 285 284 284 285 284 282 283 284 282 281 279 278 276 274 272 272 271 271 269 268 267 265 264 264 265 268 268 268 268 268 268 268 268 269 269 271
Wind_Speed
3 3 6 9 13 2 6 7 3 0 2 5 15 15 13 6 5 6 7 7 8 8 3 4 5 6 4 3 5 5 5 5 5 4 4 4 3 3 5 6 8 7 7 6
2 5 2 5 5 4 1 5 7 3 4 6 7 15 10 6 6 7 5 7 8 10 7 7 6 4 5 6 5 5 5 4 1 1 1 1 3 6 6 6 7 8 8 9
9 0 9 3 5 7 5 6 4 4 3 1 1 8 10 11 7 1 2 1 7 11 9 8 8 7 7 9 8 9 9 8 8 5 3 3 5 5 5 7 6 8 11 11
8 8 6 8 11 5 3 4 5 9 6 5 7 4 14 18 10 5 2 5 7 11 11 10 10 10 10 10 10 12 12 12 12 11 10 11 8 7 5 4 7 9 13 13
6 6 9 8 10 11 2 4 5 5 6 1 5 4 4 9 14 9 7 7 9 10 12 13 13 12 12 12 11 12 14 15 14 14 12 9 10 4 5 5 8 9 9 12
5 1 5 8 5 13 12 8 6 4 2 6 9 8 3 7 15 10 9 10 11 13 14 15 14 14 14 12 12 11 13 15 14 15 14 13 12 6 6 9 8 7 7 8
6 4 2 1 8 6 5 9 3 3 4 5 0 10 8 3 5 14 16 15 14 16 15 15 15 14 14 15 13 13 13 15 15 15 15 12 14 11 12 9 7 7 5 8
8 5 10 6 4 6 10 5 4 6 5 4 2 8 2 4 5 13 14 16 17 17 15 16 15 13 14 13 13 12 11 15 13 12 14 13 13 7 7 10 7 7 7 7
5 3 0 3 1 2 7 6 2 5 2 2 5 2 4 8 13 16 17 18 17 15 14 14 12 10 11 11 11 10 10 12 10 14 9 11 11 9 7 10 8 7 7 7
3 4 2 3 1 3 4 13 3 2 6 6 5 5 5 13 17 18 19 18 15 12 11 10 9 9 9 10 9 10 9 10 10 11 9 8 8 6 7 9 11 9 8 10
3 2 4 1 5 6 5 5 3 2 2 3 2 3 3 14 18 21 19 15 11 11 10 10 8 7 9 8 7 10 11 10 10 9 8 9 8 8 8 8 9 10 9 9
3 1 3 3 1 2 1 2 4 6 5 2 2 2 2 6 15 18 16 13 12 11 10 9 8 8 9 10 10 10 9 9 9 9 9 9 8 8 8 8 8 8 8 9
8 4 4 3 1 1 3 2 4 2 1 6 5 2 4 5 15 16 18 15 12 12 11 10 10 9 9 9 8 8 8 9 8 8 8 8 8 7 8 8 9 9 9 10
4 2 3 1 4 5 5 5 6 3 3 4 5 2 4 8 16 17 17 16 13 12 12 12 9 9 8 7 7 7 7 7 6 7 7 7 7 7 7 8 8 8 9 9
5 4 2 1 1 2 4 9 10 7 6 8 1 7 10 16 16 16 16 16 16 15 14 12 11 9 8 7 7 6 6 6 6 6 7 7 7 8 8 8 8 7 7 6
4 4 2 0 1 3 3 6 14 14 8 7 7 7 4 14 14 17 18 18 17 16 14 13 11 10 8 7 6 6 6 6 6 6 7 7 7 6 6 5 6 6 6 7
5 6 4 4 1 3 5 17 16 12 12 12 12 4 15 16 19 21 21 20 19 18 16 14 12 10 8 7 6 6 5 5 6 6 7 6 5 5 6 6 6 6 7 8
5 4 1 3 2 6 2 3 11 16 10 17 3 7 17 16 13 15 15 18 18 16 15 12 10 9 8 7 7 7 5 5 7 7 5 4 5 5 5 5 5 6 6 7
2 3 4 4 6 5 2 6 8 12 10 15 15 6 9 11 11 9 10 14 14 15 13 11 10 9 8 7 7 7 6 7 6 4 3 4 4 4 4 4 5 6 7 7
3 3 1 3 4 6 1 2 2 4 8 3 18 15 16 17 11 10 15 15 15 14 12 12 11 9 8 7 6 7 7 5 3 1 1 3 4 3 4 6 6 6 6 7
3 2 3 3 4 6 2 4 3 6 1 4 7 13 19 14 4 12 17 14 15 13 13 12 10 8 6 5 6 7 5 4 1 1 2 3 3 3 4 5 5 6 6 6
5 7 4 3 4 9 6 4 7 2 2 2 4 9 14 7 11 16 18 17 16 15 13 11 10 8 6 5 6 6 5 3 1 1 0 1 3 3 4 4 4 4 5 5
4 4 3 8 4 1 5 3 0 1 4 2 6 11 15 15 12 17 17 16 14 14 11 9 9 9 5 4 4 5 4 2 2 2 0 1 3 3 4 4 3 3 4 5
4 3 3 2 5 10 8 6 5 2 4 4 5 12 15 16 17 13 13 12 12 10 9 8 9 8 6 4 3 4 4 2 2 2 0 1 2 3 2 3 3 4 5 6
1 8 4 5 8 6 11 9 3 4 4 6 8 6 10 15 12 13 10 10 10 10 8 7 7 6 6 6 5 4 3 1 2 2 1 2 2 3 3 3 3 4 4 5
9 9 8 7 5 3 1 6 10 8 7 10 10 5 5 7 12 10 9 8 9 9 8 6 6 6 7 7 6 4 2 2 2 2 1 1 2 3 3 4 5 4 7 10
Wind_Direction
173 193 199 186 199 73 170 154 142 199 90 212 217 233 234 210 262 242 226 209 199 195 169 198 205 202 193 186 206 211 215 209 207 215 226 231 252 82 69 65 36 29 22 14
153 209 153 132 156 148 134 153 164 136 153 222 207 236 243 211 246 265 266 199 185 158 134 90 89 115 130 111 100 103 90 67 84 233 216 319 106 82 69 48 44 33 33 28
216 221 190 156 105 206 196 192 182 105 114 36 176 260 242 239 191 190 47 89 178 167 133 109 85 75 79 78 80 81 73 63 50 42 81 98 92 64 46 23 22 34 37 32
224 226 175 199 206 191 222 221 153 138 163 232 198 264 209 224 209 163 137 129 133 127 115 108 98 79 69 68 75 78 74 67 54 50 60 65 70 87 62 30 30 42 33 28
172 191 191 212 213 190 151 153 148 175 152 80 198 260 223 213 217 201 149 130 113 109 111 107 97 91 79 67 63 70 73 66 63 64 71 78 79 53 94 89 57 43 38 34
178 20 216 206 177 192 142 99 61 53 138 233 195 205 221 192 218 172 139 127 122 114 105 99 95 92 80 70 57 53 63 60 55 62 62 64 62 35 60 53 56 36 31 23
174 151 140 255 172 152 155 135 137 189 228 234 52 201 244 219 208 182 153 140 132 121 114 111 100 88 80 66 70 58 48 62 56 57 54 54 59 46 45 56 52 42 36 27
180 179 186 150 248 180 181 204 207 211 191 149 105 225 166 336 128 138 138 132 128 120 114 111 103 98 85 80 67 70 53 61 52 55 60 54 48 32 25 38 35 45 35 16
163 149 112 66 4 197 161 206 356 98 25 185 193 230 175 132 131 137 136 138 128 122 119 114 106 99 98 89 87 84 80 64 53 60 55 53 56 46 28 38 36 38 27 6
132 141 18 85 10 33 248 141 131 172 185 221 191 248 217 178 160 154 151 146 136 128 123 115 107 105 100 98 105 99 93 93 88 80 69 71 73 67 51 37 31 27 18 14
149 301 123 142 197 179 146 184 63 107 242 244 191 202 17 185 171 164 158 150 136 132 134 125 118 106 102 107 106 93 84 82 78 75 78 73 62 52 50 44 31 19 12 7
114 74 174 198 20 5 25 207 189 222 184 259 350 254 325 220 179 166 153 144 139 136 132 129 125 114 106 96 82 82 84 81 69 61 60 59 51 47 42 36 27 17 12 9
157 183 143 129 204 32 207 195 185 187 64 193 191 160 0 183 171 163 151 152 146 146 148 140 136 118 100 92 89 86 78 74 69 68 61 57 49 44 40 33 22 15 13 10
141 132 265 237 86 123 181 165 192 164 201 185 238 158 174 168 166 160 158 155 150 151 154 137 123 115 109 100 101 94 83 76 74 71 68 60 48 41 32 25 20 16 11 3
169 150 139 55 98 146 166 167 185 208 225 217 256 221 193 185 176 169 159 155 153 161 154 140 138 131 123 123 114 105 93 79 72 69 64 51 39 36 23 17 13 4 6 4
190 136 132 170 255 208 213 216 205 210 220 251 255 243 211 162 161 165 166 165 166 163 153 150 144 141 144 144 127 116 96 80 78 68 54 39 34 30 21 9 6 2 358 1
146 141 162 186 335 127 283 220 206 205 208 203 204 194 155 166 177 177 170 174 172 164 161 155 154 156 147 133 141 132 125 118 95 77 52 35 24 23 15 6 2 358 356 352
143 126 130 128 173 222 98 330 216 221 237 223 192 153 182 189 185 176 177 166 164 161 157 155 153 144 137 144 149 135 128 115 79 61 45 29 21 15 5 353 354 357 350 345
345 165 115 183 217 316 200 182 181 192 255 219 224 179 159 142 133 165 178 173 161 155 151 150 150 147 151 151 150 144 109 77 70 57 30 16 7 354 344 349 353 359 349 344
93 63 140 170 202 217 14 152 173 170 273 323 207 175 156 152 184 187 161 144 143 141 142 146 146 144 150 149 145 107 88 92 106 54 3 350 352 337 346 355 356 348 339 335
116 77 200 176 239 282 210 161 199 176 313 335 228 181 163 182 201 132 141 141 141 143 145 143 149 152 134 126 120 109 129 154 162 345 2 356 342 323 358 354 349 339 331 315
177 163 175 130 206 248 160 140 201 35 302 292 191 170 171 116 122 141 137 139 144 147 150 152 145 138 128 131 145 153 168 129 52 21 193 330 345 349 357 342 311 309 318 318
210 216 187 210 216 73 204 252 215 178 273 226 182 154 142 137 148 149 152 152 150 150 151 151 150 145 140 137 174 165 130 135 174 188 97 7 354 336 328 324 321 309 339 347
235 184 237 194 209 229 231 235 240 219 233 163 170 161 152 155 156 150 145 146 149 149 154 155 153 156 153 151 122 127 153 169 174 197 329 8 292 316 314 317 343 340 343 342
235 155 186 266 272 283 245 228 225 205 188 136 134 151 151 140 141 144 144 149 156 157 155 162 166 162 160 160 157 162 168 178 198 221 259 304 290 331 336 337 316 315 313 325
190 184 185 211 209 195 221 200 168 174 181 155 140 114 106 137 144 149 155 157 153 155 154 160 165 157 163 178 174 166 173 191 228 205 223 312 305 337 330 314 310 302 301 319